Flag for Germany Weather past 2 weeks in Ganderkesee, Lower Saxony, Germany

Now
66 °F

Sunny.


Feels Like: 66 °F
Forecast: 60 / 78 °F
Wind: 8 mph from Northeast

Location: Bremen Airport

Current Time: Jul 23, 2014 at 10:00:25 AM

Latest Report: Jul 23, 2014 at 7:20 AM


Visibility: 10 mi

Pressure: 30.15 "Hg

Humidity: 73%

Dew point: 57 °F

Location of GanderkeseeLocation

Historic Weather in Ganderkesee — Graph

°F

Ganderkesee temperature yesterday

Maximum temperature yesterday: 82 °F (at 3:50 PM)
Minimum temperature yesterday: 61 °F (at 4:50 AM)
Average temperature yesterday: 71 °F

Past Weeks' High & Low Weather Summary

 TemperatureHumidityPressure
High90 °F (Jul 19, 1:50 PM)100% (Jul 8, 5:50 PM)30.18 "Hg (Jul 8, 5:50 PM)
Low54 °F (Jul 17, 4:50 AM)27% (Jul 19, 4:20 PM)29.59 "Hg (Jul 9, 2:50 PM)
Average70 °F72%29.92 "Hg
* Reported Jul 8 7:20 AM — Jul 23 7:20 AM, Ganderkesee, Weather by CustomWeather, © 2014

Note: Actual official high and low records may vary slightly from our data, if they occured in-between our weather recording intervals... More about our weather records

Advertising

Ganderkesee weather history for previous 24 hours

 ConditionsComfort  
Time TempWeatherWind HumidityBarometerVisibility
7:20 AM
Jul 23
66 °FSunny.8 mph73%30.15 "Hg10 mi
6:50 AM64 °FPassing clouds.7 mph78%30.15 "HgN/A
6:20 AM63 °FPassing clouds.8 mph83%30.15 "HgN/A
5:50 AM63 °FClear.8 mph83%30.15 "Hg10 mi
5:20 AM63 °FClear.9 mph83%30.15 "Hg10 mi
4:50 AM63 °FClear.12 mph83%30.12 "Hg10 mi
4:20 AM64 °FClear.10 mph78%30.12 "Hg10 mi
3:50 AM64 °FClear.10 mph78%30.15 "Hg10 mi
3:20 AM64 °FClear.12 mph78%30.15 "Hg10 mi
2:50 AM66 °FClear.9 mph73%30.15 "Hg10 mi
2:20 AM66 °FClear.9 mph73%30.15 "Hg10 mi
1:50 AM66 °FClear.8 mph68%30.12 "Hg10 mi
6:50 PM
Jul 22
81 °FPassing clouds.14 mph48%30.07 "HgN/A
6:20 PM82 °FSunny.10 mph48%30.04 "Hg10 mi
5:50 PM82 °FPassing clouds.10 mph45%30.04 "HgN/A
5:20 PM81 °FBroken clouds.9 mph51%30.04 "HgN/A
4:50 PM81 °FBroken clouds.7 mph51%30.07 "HgN/A
4:20 PM82 °FBroken clouds.9 mph51%30.07 "HgN/A
3:50 PM82 °FBroken clouds.10 mph45%30.07 "HgN/A
3:20 PM81 °FBroken clouds.13 mph51%30.07 "HgN/A
2:50 PM79 °FBroken clouds.10 mph48%30.07 "HgN/A
2:20 PM81 °FBroken clouds.10 mph48%30.07 "HgN/A
1:50 PM79 °FBroken clouds.15 mph54%30.07 "HgN/A
1:20 PM79 °FPartly sunny.10 mph54%30.07 "HgN/A
12:50 PM77 °FPartly sunny.12 mph57%30.07 "HgN/A
12:20 PM75 °FPartly sunny.12 mph61%30.07 "HgN/A
11:50 AM75 °FPartly sunny.13 mph61%30.07 "HgN/A
11:20 AM75 °FPartly sunny.13 mph65%30.07 "HgN/A
10:50 AM72 °FPartly sunny.13 mph73%30.07 "HgN/A
10:20 AM72 °FBroken clouds.14 mph69%30.07 "HgN/A
Weather by CustomWeather, © 2014

See weather overviewHow to use our weather pages